Regional Weather Roundup
Issued by NWS Newport/Morehead, NC

Current Version | Previous Version | Graphics & Text | Print | Product List | Glossary Off
Versions: 1 2 3 4 5 6 7 8 9 10 11 12 13 14 15 16 17 18 19 20 21 22 23 24 25 26 27 28 29 30 31 32 33 34 35 36 37 38 39 40 41 42 43 44 45 46 47 48 49 50

000
ASUS42 KMHX 260213
RWRMHX
WEATHER ROUNDUP FOR EASTERN NORTH CAROLINA
NATIONAL WEATHER SERVICE NEWPORT/MOREHEAD CITY NC
900 PM EST SAT FEB 25 2017

NOTE: "FAIR" INDICATES FEW OR NO CLOUDS BELOW 12,000 FEET
WITH NO SIGNIFICANT WEATHER AND/OR OBSTRUCTIONS TO VISIBILITY

NCZ015>017-031-032-045>047-102-103-260300-
NORTH COAST

CITY           SKY/WX    TMP DP  RH WIND       PRES   REMARKS
EDENTON        PTCLDY    65  45  48 NW12G20   29.70R
ELIZABETH CITY CLOUDY    63  46  54 NW16G28   29.69R
KITTY HAWK     NOT AVBL
MANTEO         CLEAR     65  58  78 SW18      29.63R

$$

NCZ045>047-081-094-103-104-260300-
CENTRAL COAST

CITY           SKY/WX    TMP DP  RH WIND       PRES   REMARKS
FRISCO         CLEAR     68  61  78 SW20G35   29.68R HAZE

$$

NCZ095-097-098-100-101-260300-
SOUTHERN COAST

CITY           SKY/WX    TMP DP  RH WIND       PRES   REMARKS
BEAUFORT       PTCLDY    65  60  84 W15G26    29.72R
CEDAR ISLAND   NOT AVBL
JACKSONVILLE   PTCLDY    67  59  75 SW9       29.70R
PINEY ISLAND   PTCLDY   N/A N/A N/A SW15G23   29.70R
WILMINGTON     CLEAR     65  58  78 SW10      29.73R


$$

NCZ011>013-027>030-043-044-078>080-089-090>093-098-260300-
COASTAL PLAIN

CITY           SKY/WX    TMP DP  RH WIND       PRES   REMARKS
AHOSKIE          N/A     60  46  59 W3        29.72R
CLINTON        CLEAR     69  30  23 W10       29.74R
ELIZABETHTOWN  CLEAR     69  24  18 W15G28    29.76R
GOLDSBORO      CLEAR     68  42  38 NW13      29.70R
GREENVILLE     MOCLDY    64  45  48 NW9       29.75R
HAVELOCK       PTCLDY    65  58  78 SW9       29.71
KENANSVILLE    PTCLDY    70  37  30 W13       29.72R
KINSTON        MOCLDY    72  43  35 W8        29.71R
NEW BERN       MOCLDY    66  59  78 SW7       29.71R
RICHLANDS      PTCLDY    65  58  78 W7        29.73R
ROCKY MOUNT    CLEAR     63  39  41 NW12G20   29.73R
WASHINGTON     PTCLDY    66  59  77 N18G24    29.69R
WHITEVILLE     CLEAR     69  32  25 W9        29.76R

$$

AMZ130-135-150-152-154-156-158-170-250-252-270-ANZ085-086-088-633-658-670-260300-
MARINE OBSERVATIONS

STATION/POSITION TIME  TEMP    WIND        PRES    WAVE   SWELL
                       AIR SEA DIR/SP/G            HT/PER HT/PER
                 (UTC) (F)     (DEG/KT/KT) (MB)    (FT/S) (FT/S)
CHESAPEAKE LIGHT NOT AVBL
64 E VA BEACH    0150   59 52  230/ 23/ 31 1001.8    7/10   5/10
DUCK             0148   65 49  290/ 14/ 26 1003.8
2 E DUCK         0130      51                N/A     4/11   2/11
OREGON INLET     0148          210/ 20/ 23   N/A
13E OREGON INLT  NOT AVBL
HATTERAS CG      0148   67 64  230/ 17/ 24 1004.8
DIAMOND BUOY     0150   72 75  240/ 29/ 35 1004.4   10/10   5/10
CAPE LOOKOUT     0200   66     230/ 16/ 23 1006.0
BEAUFORT LAB     0148   65 64  240/ 11/ 16 1005.2
30 SE NEW RVR IN 0108   68     240/ 23/ 31 1005.7
30 SE NEW RVR IN 0143      67                N/A     8/10   3/11
27 SE WRIGHTSVLE 0108   67 64  240/ 19/ 25 1005.2
5 SE WRIGHTSVLE  0108   63 59  230/ 12/ 17 1006.4
225 S CAPE HAT   0150   72 71  220/ 14/ 19 1010.8    6/ 9   5/ 9
41 SE CHARLESTON 0150   71 70  230/ 17/ 21 1009.0    6/11   5/11

$$




USA.gov is the U.S. government's official web portal to all federal, state and local government web resources and services.